Regional Weather Roundup
Issued by NWS Kansas City/Pleasant Hill, MO

Home | Current Version | Previous Version | Graphics & Text | Print | Product List | Glossary Off
Versions: 1 2 3 4 5 6 7 8 9 10 11 12 13 14 15 16 17 18 19 20 21 22 23 24 25 26 27 28 29 30 31 32 33 34 35 36 37 38 39 40 41 42 43 44 45 46 47 48 49 50

000
ASUS43 KEAX 290310
RWREAX

WEATHER ROUNDUP FOR EASTERN KANSAS AND NORTHWEST MISSOURI
NATIONAL WEATHER SERVICE KANSAS CITY/PLEASANT HILL MO
1000 PM CDT SUN MAY 28 2017

KSZ040-057-103>105-MOZ028-029-037-043-290400-
...KANSAS CITY METROPOLITAN AREA...

CITY           SKY/WX    TMP DP  RH WIND       PRES   REMARKS
K.C. INTL      CLEAR     67  52  58 W6        29.91R
K.C. DOWNTOWN  CLEAR     72  50  45 SW6       29.89R
LEES SUMMIT    CLEAR     68  53  58 SW6       29.91R
OLATHE - IXD   CLEAR     67  52  58 SW6       29.92R
OLATHE - OJC   CLEAR     66  53  63 CALM      29.92R
LAWRENCE       CLEAR     63  57  81 NW3       29.91R

$$

MOZ001>008-011>017-020>025-030>033-038>040-044>046-053-054-290400-
...NORTHERN AND CENTRAL MISSOURI...

CITY           SKY/WX    TMP DP  RH WIND       PRES   REMARKS
ST. JOSEPH     CLEAR     65  52  62 CALM      29.91R
MOSBY          CLEAR     64  54  68 N3        29.89R
WARRENSBURG    CLEAR     64  52  63 SW5       29.90S
WHITEMAN AFB   CLEAR     64  55  72 SW5       29.89S
CLINTON        CLEAR     64  57  77 CALM      29.91S
SEDALIA        CLEAR     71  53  52 W5        29.91S
WARSAW         NOT AVBL
CHILLICOTHE      N/A     69  52  54 VRB6      29.89R
KIRKSVILLE     MOCLDY    66  50  56 SW5       29.87R

$$

MOZ041-047>049-056>058-063>065-088>090-097-290400-
...EASTERN AND SOUTHERN MISSOURI...

CITY           SKY/WX    TMP DP  RH WIND       PRES   REMARKS
ST. LOUIS INTL PTCLDY    72  56  57 SW8       29.89R
SPIRIT OF STL  CLEAR     67  58  72 SW6       29.88R
COLUMBIA       CLEAR     68  54  60 W6        29.89S
JEFFERSON CITY CLEAR     69  59  70 CALM      29.89R
ROLLA          CLEAR     61  57  87 S9        29.92R
OSAGE BEACH    CLEAR     63  59  87 S3        29.94R
SPRINGFIELD    CLEAR     64  56  75 S8        29.97R
BRANSON        CLEAR     64  55  72 CALM      30.00R
JOPLIN         CLEAR     63  57  81 S6        29.97R
WEST PLAINS    CLOUDY    61  57  87 CALM      29.98R

$$

IAZ060-094-KSZ022-034>040-054-083-096-NEZ052-066-093-290400-
...KANSAS...SOUTHEAST NEBRASKA AND IOWA...

CITY           SKY/WX    TMP DP  RH WIND       PRES   REMARKS
TOPEKA         CLEAR     71  52  50 NW5       29.91R
MANHATTAN      CLEAR     66  55  67 W6        29.94R
EMPORIA        CLEAR     66  52  60 W5        29.94F
CHANUTE        CLEAR     59  52  77 W3        29.95R
WICHITA        CLEAR     69  47  45 NW6       29.98S
OMAHA          PTCLDY    62  50  64 CALM      29.89S
LINCOLN        CLOUDY    64  45  49 CALM      29.94R
FALLS CITY     CLEAR     64  45  49 NW5       29.91R
LAMONI         CLEAR     63  45  51 NW8       29.89R
DES MOINES     PTCLDY    66  42  41 W7        29.85R

$$




USA.gov is the U.S. government's official web portal to all federal, state and local government web resources and services.